Regional Weather Roundup
Issued by NWS

Home | Current Version | Previous Version | Text Only | Print | Product List | Glossary On
Versions: 1 2 3 4 5 6 7 8 9 10 11 12 13 14 15 16 17 18 19 20 21 22 23 24 25 26 27 28 29 30 31 32 33 34 35 36 37 38 39 40 41 42 43 44 45 46 47 48 49 50
000
ASUS43 KMKX 202211
RWRWI

WISCONSIN REGIONAL WEATHER ROUNDUP
NATIONAL WEATHER SERVICE MILWAUKEE/SULLIVAN WI
500 PM CDT SUN APR 20 2014

NOTE: "FAIR" INDICATES FEW OR NO CLOUDS BELOW 12,000 FEET WITH NO
SIGNIFICANT WEATHER AND/OR OBSTRUCTIONS TO VISIBILITY.

WIZ001-002-006>008-014>016-023>028-202300-
NORTHWEST WISCONSIN

CITY           SKY/WX    TMP DP  RH WIND       PRES   REMARKS
SUPERIOR ARPT  SUNNY     60  39  44 E5        29.99S
ASHLAND        SUNNY     56  41  57 N7        30.00S
HAYWARD        SUNNY     70  28  21 W7        29.98F
SIREN          SUNNY     70  29  21 N5        29.98F
RICE LAKE      SUNNY     72  38  28 W3        29.98F
LADYSMITH      SUNNY     70  50  48 SE6       30.00S
EAU CLAIRE     MOSUNNY   68  52  56 S7        29.98F
MENOMONIE      PTCLDY    70  49  46 S8        29.98F
NEW RICHMOND   SUNNY     72  36  26 CALM      29.97S
OSCEOLA          N/A     73  36  25 CALM      29.98F HAZE
$$

WIZ003>005-009-010-017-018-202300-
NORTH CENTRAL WISCONSIN

CITY           SKY/WX    TMP DP  RH WIND       PRES   REMARKS
WOODRUFF       MOSUNNY   67  44  43 S10       29.99S
RHINELANDER    PTSUNNY   63  50  62 S10       30.01F
EAGLE RIVER    PTSUNNY   66  40  39 SW5       29.99S
LAND O LAKES   MOSUNNY   69  32  25 NW5       29.99F
PHILLIPS       SUNNY     69  43  39 SW8       29.98S
TOMAHAWK       CLOUDY    62  50  66 S3        30.01S
MEDFORD        CLOUDY    56  51  85 S6        30.03S
MERRILL        CLOUDY    58  51  79 CALM      30.04R
$$

WIZ029-030-035-036-043>047-202300-
CENTRAL WISCONSIN

CITY           SKY/WX    TMP DP  RH WIND       PRES   REMARKS
WAUSAU         CLOUDY    57  50  77 S7        30.02S
MOSINEE        CLOUDY    57  54  88 S8        30.05
MARSHFIELD     CLOUDY    60  54  80 S8        30.02F
STEVENS POINT  CLOUDY    57  52  83 S7        30.04F
WAUPACA        CLOUDY    59  54  82 CALM      30.05S
WAUTOMA        PTSUNNY   59  55  86 CALM      30.05F
WISC RAPIDS    PTSUNNY   61  52  72 S7        30.05F
CAMP DOUGLAS   CLOUDY    59  59 100 SE3       30.03F
$$

WIZ011>013-019>022-031-037>040-048>050-202300-
NORTHEAST WISCONSIN

CITY           SKY/WX    TMP DP  RH WIND       PRES   REMARKS
ANTIGO         CLOUDY    58  51  77 S9        30.03F
STURGEON BAY   CLOUDY    45  37  76 S7        30.07F
GREEN BAY      CLOUDY    57  49  74 S5        30.05F
MANITOWOC      LGT RAIN  50  39  66 SE5       30.08F
APPLETON       LGT RAIN  55  52  88 VRB5      30.06F
CLINTONVILLE   CLOUDY    55  50  82 SW3       30.05F
OSHKOSH        LGT RAIN  61  54  77 CALM      30.05F
$$

WIZ032>034-041-042-053>061-202300-
SOUTHWEST WISCONSIN

CITY           SKY/WX    TMP DP  RH WIND       PRES   REMARKS
LA CROSSE      PTSUNNY   62  54  74 E5        30.01F
SPARTA         CLOUDY    60  53  77 SW3       30.04S
VIROQUA        FAIR      61  59  94 CALM      30.02S
BOSCOBEL       LGT RAIN  63  57  81 NE3       30.00F
PRAIRIE DU CHI RAIN      60  56  85 CALM      29.99S
PLATTEVILLE    FAIR      75  46  34 NE7       30.03S
$$

WIZ056-057-062-063-064-067-068-202300-
SOUTH CENTRAL WISCONSIN

CITY           SKY/WX    TMP DP  RH WIND       PRES   REMARKS
BARABOO/DELLS  LGT RAIN  59  54  84 CALM      30.03F
LONE ROCK      CLOUDY    65  55  70 E3        30.01F
WATERTOWN      CLOUDY    73  46  37 NW9       30.04S
MADISON        CLOUDY    71  46  40 N6        30.03F
MIDDLETON      MOCLDY    69  47  45 N5        30.05S
MONROE         PTSUNNY   77  44  30 SW8       30.04S
JANESVILLE     SUNNY     81  36  19 SW12      30.03F
$$

WIZ051-052-058>065-066-070>072-202300-
SOUTHEAST WISCONSIN

CITY           SKY/WX    TMP DP  RH WIND       PRES   REMARKS
MILWAUKEE      PTSUNNY   71  41  33 SE12      30.06F
WAUKESHA       MOSUNNY   75  41  29 SW15      30.06F
MILWAUKEE/TIMM SUNNY     75  37  25 SW9       30.05F
RACINE         MOSUNNY   64  37  36 S14       30.09S
BURLINGTON     MOSUNNY   77  41  27 SW12      30.05F
KENOSHA        MOSUNNY   73  41  31 SE14      30.07S
FOND DU LAC    LGT RAIN  61  51  70 CALM      30.06F
SHEBOYGAN      CLOUDY    59  39  47 SE8       30.07F
WEST BEND      CLOUDY    72  39  30 SW3       30.05F
JUNEAU         LGT RAIN  70  37  30 CALM      30.07S
$$

LSZ147-162-202300-
LAKE SUPERIOR

STATION/POSITION TIME  TEMP    WIND        PRES    WAVE
                       AIR SEA DIR/SP/G            HT/PER
                 (UTC) (F)     (DEG/KT/KT) (MB)    (FT/S)
DEVILS ISLAND    2200   51        CALM     1016.5F
PORT WING        2130   52      40/  3/ 15 1016.3F
SAXON HARBOR     2100             CALM     1016.6F
$$

LMZ867-665-643>646-202300-
LAKE MICHIGAN

STATION/POSITION TIME  TEMP    WIND        PRES    WAVE
                       AIR SEA DIR/SP/G            HT/PER
                 (UTC) (F)     (DEG/KT/KT) (MB)    (FT/S)
NORTHPORT PIER   2100   42     160/  6/  9 1018.3F
SISTER BAY       2109   46     170/  8/ 12   N/A
KEWAUNEE LAKESHO 2100   39     170/  8/  9 1019.5F
SHEBOYGAN LAKESH 2200   45     170/  8/  8 1019.3F
PORT WASHINGTON  2140   49      CALM  /  3 1019.0S
MILWAUKEE LAKESH 2100   46     150/ 13/ 18   N/A
KENOSHA   LAKESH 2200   54     180/ 15/ 19   N/A
$$

TC  - TEMPERATURE IN CELSIUS
VSB - VISIBILITY IN STATUTE MILES
WCI - WIND CHILL INDEX
HX  - HEAT INDEX




USA.gov is the U.S. government's official web portal to all federal, state and local government web resources and services.